Tracking 19219 objects as of 20-Jul-2018
HD Live streaming from Space Station
objects crossing your sky now

USA 58

Track USA 58 now!
10-day predictions
USA 58 is classified as:


NORAD ID: 20562
Int'l Code: 1990-031C
Perigee: 697.9 km
Apogee: 706.4 km
Inclination: 89.8 °
Period: 98.7 minutes
Semi major axis: 7073 km
RCS: Unknown
Launch date: April 11, 1990
Source: United States (US)
Launch site: AIR FORCE WESTERN TEST RANGE (AFWTR)
aabbcc
Your satellite tracking list
Your tracking list is empty




NASA's NSSDC Master Catalog

Two Line Element Set (TLE):
1 20562U 90031C   18198.98696706 0.00000000  00000-0  00000-0 0    09
2 20562  89.8039 300.1147 0006000 156.5913 203.4085 14.59435157    02
Source of the keplerian elements: McCants